When you browse on this site, cookies collect data to enhance your experience and personalize the content and advertising you see.
Visit our Privacy Policy to learn more. By continuing to use the site, you agree to this use of cookies and data.
  • In Deutschland
  • Länderverzeichnis
  • Für 7 Tage
  • Wassertemperatur
  • Satellitenkarten
  • Wetterkarte
  • Widgets
  • user-avatar
    Anmelden

    Stündliche Wetter Namibe

    Heute, 23 März, Samstag

    Zeit Temperatur Niederschläge Wind Luftdruck Luftfeuchtigkeit
    00:00 +30°C° 0.3 mm 1 m/S 755 mmHg 63%
    01:00 +29°C° 0 mm 2 m/S 755 mmHg 65%
    02:00 +29°C° 0 mm 2 m/S 755 mmHg 67%
    03:00 +28°C° 0 mm 1 m/S 755 mmHg 68%
    04:00 +28°C° 0 mm 1 m/S 755 mmHg 69%
    05:00 +28°C° 0.4 mm 1 m/S 755 mmHg 70%
    06:00 +28°C° 0.4 mm 1 m/S 756 mmHg 71%
    07:00 +28°C° 0.4 mm 1 m/S 756 mmHg 72%
    08:00 +29°C° 0.2 mm 1 m/S 756 mmHg 69%
    09:00 +30°C° 0.2 mm 2 m/S 757 mmHg 66%
    10:00 +30°C° 0.2 mm 2 m/S 757 mmHg 62%
    11:00 +31°C° 0.1 mm 3 m/S 756 mmHg 60%
    12:00 +33°C° 0.1 mm 3 m/S 756 mmHg 58%
    13:00 +34°C° 0.1 mm 4 m/S 756 mmHg 57%
    14:00 +33°C° 0.6 mm 4 m/S 755 mmHg 61%
    15:00 +32°C° 0.6 mm 4 m/S 755 mmHg 65%
    16:00 +29°C° 0.6 mm 4 m/S 755 mmHg 69%
    17:00 +29°C° 2.4 mm 3 m/S 756 mmHg 73%
    18:00 +28°C° 2.4 mm 3 m/S 756 mmHg 76%
    19:00 +28°C° 2.4 mm 3 m/S 757 mmHg 80%
    20:00 +28°C° 1.3 mm 2 m/S 757 mmHg 80%
    21:00 +28°C° 1.3 mm 2 m/S 758 mmHg 81%
    22:00 +28°C° 1.3 mm 1 m/S 758 mmHg 81%
    23:00 +28°C° 0.2 mm 2 m/S 758 mmHg 80%

    Morgen, 24 März, Sonntag

    Zeit Temperatur Niederschläge Wind Luftdruck Luftfeuchtigkeit
    00:00 +28°C° 0.2 mm 2 m/S 758 mmHg 79%
    01:00 +28°C° 0.2 mm 2 m/S 758 mmHg 78%
    02:00 +28°C° 0 mm 2 m/S 757 mmHg 77%
    03:00 +29°C° 0 mm 2 m/S 757 mmHg 76%
    04:00 +29°C° 0 mm 2 m/S 756 mmHg 76%
    05:00 +29°C° 0 mm 2 m/S 757 mmHg 77%
    06:00 +28°C° 0 mm 1 m/S 757 mmHg 78%
    07:00 +28°C° 0 mm 1 m/S 757 mmHg 79%
    08:00 +29°C° 0 mm 1 m/S 757 mmHg 74%
    09:00 +30°C° 0 mm 2 m/S 758 mmHg 69%
    10:00 +31°C° 0 mm 2 m/S 758 mmHg 64%
    11:00 +33°C° 0 mm 3 m/S 757 mmHg 60%
    12:00 +34°C° 0 mm 4 m/S 757 mmHg 56%
    13:00 +35°C° 0 mm 4 m/S 756 mmHg 52%
    14:00 +34°C° 0 mm 5 m/S 756 mmHg 56%
    15:00 +33°C° 0 mm 5 m/S 755 mmHg 60%
    16:00 +32°C° 0 mm 6 m/S 754 mmHg 65%
    17:00 +30°C° 0.3 mm 5 m/S 755 mmHg 67%
    18:00 +29°C° 0.3 mm 4 m/S 755 mmHg 70%
    19:00 +28°C° 0.3 mm 4 m/S 756 mmHg 72%
    20:00 +28°C° 0.3 mm 3 m/S 756 mmHg 71%
    21:00 +28°C° 0.3 mm 3 m/S 757 mmHg 70%
    22:00 +28°C° 0.3 mm 3 m/S 757 mmHg 69%
    23:00 +28°C° 0.1 mm 2 m/S 757 mmHg 70%

    übermorgen, 25 März, Montag

    Zeit Temperatur Niederschläge Wind Luftdruck Luftfeuchtigkeit
    00:00 +28°C° 0.1 mm 2 m/S 757 mmHg 70%
    01:00 +27°C° 0.1 mm 2 m/S 757 mmHg 70%
    02:00 +27°C° 0.1 mm 2 m/S 757 mmHg 72%
    03:00 +27°C° 0.1 mm 2 m/S 756 mmHg 73%
    04:00 +27°C° 0.1 mm 2 m/S 756 mmHg 74%
    05:00 +26°C° 0 mm 2 m/S 756 mmHg 74%
    06:00 +26°C° 0 mm 2 m/S 756 mmHg 74%
    07:00 +26°C° 0 mm 3 m/S 756 mmHg 74%
    08:00 +27°C° 0 mm 2 m/S 756 mmHg 68%
    09:00 +29°C° 0 mm 2 m/S 757 mmHg 61%
    10:00 +30°C° 0 mm 2 m/S 757 mmHg 55%
    11:00 +30°C° 0 mm 3 m/S 756 mmHg 54%
    12:00 +32°C° 0 mm 4 m/S 756 mmHg 54%
    13:00 +32°C° 0 mm 5 m/S 755 mmHg 53%
    14:00 +32°C° 0 mm 5 m/S 755 mmHg 54%
    15:00 +30°C° 0 mm 4 m/S 754 mmHg 55%
    16:00 +30°C° 0 mm 4 m/S 754 mmHg 56%
    17:00 +29°C° 0 mm 4 m/S 754 mmHg 60%
    18:00 +28°C° 0 mm 3 m/S 755 mmHg 64%
    19:00 +27°C° 0 mm 3 m/S 756 mmHg 68%
    20:00 +27°C° 0 mm 3 m/S 756 mmHg 69%
    21:00 +27°C° 0 mm 2 m/S 757 mmHg 70%
    22:00 +27°C° 0 mm 2 m/S 758 mmHg 72%
    23:00 +27°C° 0 mm 3 m/S 758 mmHg 73%

    26 März, Dienstag

    Zeit Temperatur Niederschläge Wind Luftdruck Luftfeuchtigkeit
    00:00 +27°C° 0 mm 3 m/S 758 mmHg 74%
    01:00 +27°C° 0 mm 4 m/S 758 mmHg 75%
    02:00 +26°C° 0.5 mm 3 m/S 757 mmHg 77%
    03:00 +26°C° 0.5 mm 3 m/S 757 mmHg 78%
    04:00 +26°C° 0.5 mm 2 m/S 757 mmHg 80%
    05:00 +26°C° 0 mm 2 m/S 757 mmHg 80%
    06:00 +26°C° 0 mm 1 m/S 757 mmHg 81%
    07:00 +26°C° 0 mm 1 m/S 758 mmHg 81%
    08:00 +27°C° 0 mm 1 m/S 758 mmHg 76%
    09:00 +28°C° 0 mm 2 m/S 758 mmHg 71%
    10:00 +30°C° 0 mm 3 m/S 758 mmHg 65%
    11:00 +30°C° 0 mm 3 m/S 757 mmHg 64%
    12:00 +32°C° 0 mm 4 m/S 757 mmHg 62%
    13:00 +33°C° 0 mm 5 m/S 756 mmHg 60%
    14:00 +32°C° 0 mm 4 m/S 755 mmHg 62%
    15:00 +32°C° 0 mm 4 m/S 755 mmHg 64%
    16:00 +30°C° 0 mm 4 m/S 755 mmHg 66%
    17:00 +29°C° 0 mm 4 m/S 755 mmHg 68%
    18:00 +29°C° 0 mm 3 m/S 756 mmHg 70%
    19:00 +28°C° 0 mm 3 m/S 756 mmHg 72%
    20:00 +28°C° 0 mm 2 m/S 757 mmHg 72%
    21:00 +28°C° 0 mm 2 m/S 757 mmHg 72%
    22:00 +28°C° 0 mm 1 m/S 758 mmHg 72%
    23:00 +28°C° 0.2 mm 1 m/S 758 mmHg 72%

    27 März, Mittwoch

    Zeit Temperatur Niederschläge Wind Luftdruck Luftfeuchtigkeit
    00:00 +28°C° 0.2 mm 1 m/S 758 mmHg 72%
    01:00 +28°C° 0.2 mm 1 m/S 757 mmHg 72%
    02:00 +28°C° 0.5 mm 1 m/S 757 mmHg 73%
    03:00 +28°C° 0.5 mm 1 m/S 757 mmHg 74%
    04:00 +28°C° 0.5 mm 1 m/S 757 mmHg 75%
    05:00 +28°C° 0.2 mm 2 m/S 757 mmHg 74%
    06:00 +28°C° 0.2 mm 2 m/S 758 mmHg 74%
    07:00 +28°C° 0.2 mm 2 m/S 758 mmHg 74%
    08:00 +29°C° 0 mm 2 m/S 758 mmHg 68%
    09:00 +31°C° 0 mm 1 m/S 758 mmHg 63%
    10:00 +32°C° 0 mm 1 m/S 759 mmHg 57%
    11:00 +34°C° 0 mm 2 m/S 758 mmHg 57%
    12:00 +34°C° 0 mm 4 m/S 757 mmHg 56%
    13:00 +35°C° 0 mm 5 m/S 756 mmHg 55%
    14:00 +34°C° 0.2 mm 5 m/S 756 mmHg 57%
    15:00 +33°C° 0.2 mm 5 m/S 756 mmHg 59%
    16:00 +32°C° 0.2 mm 5 m/S 755 mmHg 61%
    17:00 +30°C° 2.3 mm 4 m/S 756 mmHg 66%
    18:00 +29°C° 2.3 mm 3 m/S 757 mmHg 71%
    19:00 +28°C° 2.3 mm 3 m/S 758 mmHg 76%
    20:00 +28°C° 1.9 mm 3 m/S 758 mmHg 76%
    21:00 +28°C° 1.9 mm 3 m/S 759 mmHg 75%
    22:00 +28°C° 1.9 mm 3 m/S 759 mmHg 74%
    23:00 +28°C° 0.2 mm 2 m/S 759 mmHg 73%

    28 März, Donnerstag

    Zeit Temperatur Niederschläge Wind Luftdruck Luftfeuchtigkeit
    00:00 +29°C° 0.2 mm 2 m/S 759 mmHg 71%
    01:00 +29°C° 0.2 mm 2 m/S 758 mmHg 70%
    02:00 +29°C° 0.1 mm 2 m/S 758 mmHg 70%
    03:00 +28°C° 0.1 mm 2 m/S 758 mmHg 71%
    04:00 +28°C° 0.1 mm 2 m/S 757 mmHg 72%
    05:00 +28°C° 0 mm 2 m/S 758 mmHg 72%
    06:00 +28°C° 0 mm 2 m/S 758 mmHg 72%
    07:00 +28°C° 0 mm 2 m/S 758 mmHg 73%
    08:00 +29°C° 0 mm 2 m/S 758 mmHg 67%
    09:00 +30°C° 0 mm 2 m/S 758 mmHg 62%
    10:00 +32°C° 0 mm 2 m/S 758 mmHg 56%
    11:00 +34°C° 0 mm 3 m/S 758 mmHg 53%
    12:00 +35°C° 0 mm 4 m/S 757 mmHg 51%
    13:00 +36°C° 0 mm 5 m/S 756 mmHg 48%
    14:00 +35°C° 0.2 mm 5 m/S 756 mmHg 50%
    15:00 +34°C° 0.2 mm 5 m/S 755 mmHg 53%
    16:00 +33°C° 0.2 mm 5 m/S 755 mmHg 55%
    17:00 +32°C° 0.6 mm 5 m/S 755 mmHg 58%
    18:00 +30°C° 0.6 mm 4 m/S 756 mmHg 62%
    19:00 +29°C° 0.6 mm 3 m/S 757 mmHg 65%
    20:00 +29°C° 1.1 mm 3 m/S 757 mmHg 66%
    21:00 +28°C° 1.1 mm 2 m/S 757 mmHg 67%
    22:00 +28°C° 1.1 mm 1 m/S 758 mmHg 68%
    23:00 +28°C° 0.9 mm 1 m/S 758 mmHg 68%
    Mehr zeigen